Location: Napier
(39.4830°S, 176.9170°E)
Time: 01:49:32
(UTC+12:00)

IRS-1C Rocket - Pass Details

Date: 15 August 2020
Orbit: 800 x 806 km, 99.0° (Epoch: 19 September)

Event Time Altitude Azimuth Distance (km) Brightness Sun altitude
Rises 18:52:27 0° 163° (SSE) 3,357 7.1 -15.6°
Reaches altitude 10° 18:54:51 10° 158° (SSE) 2,419 6.3 -16.0°
Maximum altitude 19:00:08 59° 79° (ENE) 940 4.1 -17.1°
Drops below altitude 10° 19:05:21 10° 359° (N) 2,389 6.6 -18.1°
Sets 19:07:42 0° 355° (N) 3,312 7.4 -18.5°
